Weather History for West Palm Beach, FL

Change the Weather History Date:

Monday, November 1, 2010

  Actual Average Record
Temperature  
Mean Temperature 82 °F 75 °F  
Max Temperature 87 °F 82 °F 90 °F (1900)
Min Temperature 76 °F 68 °F 45 °F (1993)
Degree Days  
Heating Degree Days 0 0  
Month to date heating degree days 0 0  
Since 1 July heating degree days 0 1  
Cooling Degree Days 17 10  
Month to date cooling degree days 17 10  
Year to date cooling degree days 3785 3631  
Growing Degree Days 30 (Base 50)    
Moisture  
Dew Point 69 °F    
Average Humidity 72    
Maximum Humidity 82    
Minimum Humidity 61    
Precipitation  
Precipitation 0.00 in 0.17 in 5.89 in (1982)
Month to date precipitation 0.00 0.17  
Year to date precipitation 50.71 54.37  
Snow  
Snow 0.00 in - - ()
Month to date snowfall 0.0  
Since 1 July snowfall 0.0  
Since 1 September snowfall 0.0  
Snow Depth 0.00 in    
Sea Level Pressure  
Sea Level Pressure 30.10 in    
Wind  
Wind Speed 9 mph (ESE)    
Max Wind Speed 20 mph    
Max Gust Speed 23 mph    
Visibility 10 miles    
Events      
T = Trace of Precipitation, MM = Missing Value Source: NWS Daily Summary

Daily Weather History Graph

Daily Weather History Graph

Search for Another Location

Airport:

Trip Planner

Search our weather history database for the weather conditions in past years. The results will help you decide how hot, cold, wet, or windy it might be!

Date:

Astronomy

Nov. 01, 2010 Rise Set
Actual Time 7:29 AM EDT 6:37 PM EDT
Civil Twilight 7:05 AM EDT 7:01 PM EDT
Nautical Twilight 6:38 AM EDT 7:29 PM EDT
Astronomical Twilight 6:11 AM EDT 7:56 PM EDT
Moon 2:33 AM EDT (11/1) 3:19 PM EDT (11/1)
Length of Visible Light 11h 55m
Length of Day
11h 07m
Waning Crescent, 26% of the Moon is Illuminated
Nov 1
Waning Crescent
Nov 6
New
Nov 13
First Quarter
Nov 21
Full
Nov 28
Last Quarter

Hourly Weather History & Observations

Time (EDT) Temp. Heat Index Dew Point Humidity Pressure Visibility Wind Dir Wind Speed Gust Speed Precip Events Conditions
12:53 AM 80.1 °F 82.9 °F 69.1 °F 69% 30.10 in 10.0 mi ESE 9.2 mph - N/A   Overcast
1:53 AM 78.1 °F - 69.1 °F 74% 30.09 in 10.0 mi ESE 5.8 mph - N/A   Partly Cloudy
2:53 AM 77.0 °F - 69.1 °F 76% 30.08 in 10.0 mi SE 5.8 mph - N/A   Partly Cloudy
3:53 AM 75.9 °F - 69.1 °F 79% 30.07 in 10.0 mi SE 4.6 mph - N/A   Partly Cloudy
4:53 AM 75.9 °F - 70.0 °F 82% 30.07 in 10.0 mi SSE 3.5 mph - N/A   Partly Cloudy
5:53 AM 75.9 °F - 70.0 °F 82% 30.08 in 10.0 mi SSE 3.5 mph - N/A   Partly Cloudy
6:53 AM 77.0 °F - 70.0 °F 79% 30.09 in 10.0 mi SSE 9.2 mph - N/A   Partly Cloudy
7:53 AM 78.1 °F - 70.0 °F 76% 30.11 in 10.0 mi Calm Calm - N/A   Partly Cloudy
8:53 AM 80.1 °F 83.8 °F 72.0 °F 76% 30.13 in 10.0 mi Calm Calm - N/A   Scattered Clouds
9:53 AM 82.9 °F 87.0 °F 70.0 °F 65% 30.15 in 10.0 mi ESE 6.9 mph - N/A   Scattered Clouds
10:53 AM 84.0 °F 88.4 °F 70.0 °F 63% 30.14 in 10.0 mi East 9.2 mph - N/A   Mostly Cloudy
11:53 AM 84.9 °F 88.8 °F 69.1 °F 59% 30.14 in 10.0 mi ESE 10.4 mph - N/A   Mostly Cloudy
12:53 PM 84.9 °F 89.4 °F 70.0 °F 61% 30.12 in 10.0 mi East 10.4 mph - N/A   Mostly Cloudy
1:53 PM 84.9 °F 89.4 °F 70.0 °F 61% 30.09 in 10.0 mi East 11.5 mph - N/A   Mostly Cloudy
2:53 PM 84.0 °F 89.6 °F 72.0 °F 67% 30.07 in 10.0 mi East 15.0 mph - N/A   Mostly Cloudy
3:53 PM 84.0 °F 89.0 °F 71.1 °F 65% 30.06 in 10.0 mi East 18.4 mph - N/A   Scattered Clouds
4:53 PM 81.0 °F 84.1 °F 69.1 °F 67% 30.06 in 10.0 mi East 15.0 mph - N/A   Mostly Cloudy
5:53 PM 80.1 °F 83.2 °F 70.0 °F 71% 30.07 in 10.0 mi ENE 11.5 mph - N/A   Mostly Cloudy
6:53 PM 80.1 °F 82.3 °F 66.9 °F 64% 30.07 in 10.0 mi East 11.5 mph - N/A   Mostly Cloudy
7:53 PM 80.1 °F 82.3 °F 66.9 °F 64% 30.09 in 10.0 mi East 13.8 mph - N/A   Mostly Cloudy
8:53 PM 81.0 °F 83.0 °F 66.0 °F 60% 30.10 in 10.0 mi East 12.7 mph - N/A   Mostly Cloudy
9:53 PM 81.0 °F 83.0 °F 66.0 °F 60% 30.12 in 10.0 mi East 11.5 mph - N/A   Mostly Cloudy
10:53 PM 81.0 °F 83.0 °F 66.0 °F 60% 30.12 in 10.0 mi East 10.4 mph - N/A   Overcast
11:53 PM 81.0 °F 83.0 °F 66.0 °F 60% 30.11 in 10.0 mi East 10.4 mph - N/A   Mostly Cloudy